STARLINK-35139

Last updated on Wed Dec 10 2025 00:02:05 GMT+0000 (Coordinated Universal Time)

1 66380U 25257A 25343.52980117 .00073554 00000+0 18317-2 0 9999 2 66380 53.1588 279.7823 0000735 64.5595 295.5486 15.39610670 5813
UTC large
Height (km)
Speed (km/s)
/
Latitude / Longitude
Inclination (degrees)
Orbital Period (minutes)
Azimuth
Elevation
Range (km)
Doppler Factor

Next 0 passes for location: London (51.5072 / 0.1276)

Sorry there are no passes over London.